Flight Track Log - Related Links

Times and Time Zones

All times are in EDT time to prevent confusion due to time zone crossing. See the LAK291 flight status page for this flight to view local times or setup timezone preferences in your user account.

Time Position Orientation Groundspeed Altitude Reporting Facility
EDT Latitude Longitude Course Direction KTS MPH feet Rate Location/Type
05:27PM 41.5275 -81.6647 10° North 161 185 1,300  Level Cleveland Center
05:27PM 41.5608 -81.6569 10° North 227 261 2,500 1,408 Climbing Cleveland Center
05:28PM 41.6214 -81.6664 353° North 227 261 3,600 1,150 Climbing Cleveland Center
05:29PM 41.6719 -81.6117 39° Northeast 226 260 4,800 1,550 Climbing Cleveland Center
05:30PM 41.7244 -81.5486 42° Northeast 240 276 6,700 1,700 Climbing Cleveland Center
05:31PM 41.7814 -81.4853 40° Northeast 260 299 8,200 1,633 Climbing Cleveland Center
05:33PM 41.8356 -81.3653 80° East  Level FlightAware Approximate
05:33PM 41.8533 -81.3192 80° East 247 284 11,600  Level Cleveland Center
05:34PM 41.8686 -81.2217 78° East 260 299 13,300 1,700 Climbing Cleveland Center
05:35PM 41.8858 -81.1214 77° East 255 293 15,000 1,550 Climbing Cleveland Center
05:36PM 41.9008 -81.0239 78° East 255 293 16,400 1,250 Climbing Cleveland Center
05:37PM 41.9178 -80.9208 78° East 267 307 17,500 1,200 Climbing Cleveland Center
05:38PM 41.9347 -80.8175 78° East 282 325 18,800 1,500 Climbing Cleveland Center
05:39PM 41.9517 -80.7117 78° East 282 325 20,500 1,450 Climbing Cleveland Center
05:40PM 41.9661 -80.6111 79° East 282 325 21,700 1,150 Climbing Cleveland Center
05:41PM 41.9850 -80.5022 77° East 282 325 22,800 650 Climbing Cleveland Center
05:42PM 42.0014 -80.3875 79° East 297 342 23,000 100 Climbing Cleveland Center
05:43PM 42.0181 -80.2786 78° East 317 365 23,000 350 Level Cleveland Center
05:44PM 42.0217 -80.1500 88° East 339 390 23,700 850 Climbing Cleveland Center
05:45PM 42.0275 -80.0297 86° East 329 379 24,700 650 Climbing Cleveland Center
05:46PM 42.0308 -79.9094 88° East 329 379 25,000 250 Climbing Cleveland Center
05:47PM 42.0344 -79.7836 88° East 329 379 25,200 550 Climbing Cleveland Center
05:48PM 42.0397 -79.6606 87° East 329 379 26,100 800 Climbing Cleveland Center
05:49PM 42.0428 -79.5375 88° East 329 379 26,800 650 Climbing Cleveland Center
05:50PM 42.0458 -79.4172 88° East 324 373 27,400 800 Climbing Cleveland Center
05:51PM 42.0486 -79.2969 88° East 324 373 28,400 850 Climbing Cleveland Center
05:52PM 42.0514 -79.1822 88° East 318 366 29,100 850 Climbing Cleveland Center
05:53PM 42.0564 -79.0647 87° East 307 353 30,100 900 Climbing Cleveland Center
05:54PM 42.0589 -78.9528 88° East 307 353 30,900 750 Climbing Cleveland Center
05:55PM 42.0614 -78.8381 88° East 307 353 31,600 650 Climbing Cleveland Center
05:56PM 42.0636 -78.7206 89° East 307 353 32,200 650 Climbing Cleveland Center
05:57PM 42.0681 -78.6056 87° East 307 353 32,900 400 Climbing Cleveland Center
05:58PM 42.0703 -78.4881 89° East 307 353 33,000 50 Climbing Cleveland Center
05:59PM 42.0719 -78.3650 89° East 314 361 33,000 -50 Level Cleveland Center
06:00PM 42.0736 -78.2389 89° East 326 375 32,900  Descending Cleveland Center
06:01PM 42.0814 -78.1072 85° East 338 389 33,000 -100 Climbing Cleveland Center
06:02PM 42.0825 -77.9756 89° East 343 395 32,700 -594 Descending Cleveland Center
06:05PM 42.0878 -77.6314 89° East 372 428 31,000 -776 Descending New York Center
06:06PM 42.0875 -77.4889 90° East 377 434 30,100 -756 Descending New York Center
06:07PM 42.0911 -77.3494 88° East 382 440 29,500 -545 Descending New York Center
06:08PM 42.0919 -77.2211 89° East 382 440 29,000 -694 Descending New York Center
06:09PM 42.0931 -77.0814 89° East 382 440 28,100 -992 Descending New York Center
06:10PM 42.1025 -76.9425 85° East 377 434 27,000 -992 Descending New York Center
06:11PM 42.1181 -76.8014 82° East 371 427 26,100 -958 Descending New York Center
06:12PM 42.1311 -76.6656 83° East 371 427 25,100 -908 Descending New York Center
06:13PM 42.1461 -76.5297 81° East 371 427 24,300 -545 Descending New York Center
06:14PM 42.1583 -76.4022 83° East 358 412 24,000 -95 Descending New York Center
06:16PM 42.1867 -76.1139 82° East 349 402 24,000  Level Boston Center
06:17PM 42.2011 -75.9858 81° East 349 402 24,000  Level Boston Center
06:18PM 42.2114 -75.8544 84° East 349 402 24,000  Level Boston Center
06:19PM 42.2236 -75.7233 83° East 349 402 24,000 -750 Level Boston Center
06:20PM 42.2356 -75.5950 83° East 349 402 22,500 -1,650 Descending Boston Center
06:21PM 42.2494 -75.4667 82° East 349 402 20,700 -1,700 Descending Boston Center
06:22PM 42.2611 -75.3408 83° East 343 395 19,100 -1,450 Descending Boston Center
06:23PM 42.2703 -75.2236 84° East 331 381 17,800 -1,450 Descending Boston Center
06:24PM 42.2814 -75.1117 82° East 316 364 16,200 -1,700 Descending Boston Center
06:25PM 42.2922 -75.0000 82° East 309 356 14,400 -1,782 Descending Boston Center
06:26PM 42.2967 -74.9019 86° East 307 353 13,200 -1,627 Descending Boston Center
06:26PM 42.2992 -74.8767 82° East 306 352 12,800 -1,443 Descending Boston Center
06:27PM 42.3119 -74.7675 81° East 298 343 11,300 -893 Descending Boston Center
06:28PM 42.3203 -74.6556 84° East 293 337 11,000 -150 Descending Boston Center
06:29PM 42.3286 -74.5519 84° East 286 329 11,000 -150 Level Boston Center
06:29PM 42.3314 -74.5156 84° East 284 327 10,800 -1,000 Descending Boston Center
06:30PM 42.3369 -74.4456 84° East 280 322 10,000 -1,140 Descending Boston Center
06:31PM 42.3469 -74.3419 83° East 274 315 8,900 -960 Descending Boston Center
06:31PM 42.3472 -74.3194 89° East 274 315 8,800 -1,000 Descending Boston Center
06:32PM 42.3547 -74.2439 82° East 274 315 7,900 -1,082 Descending Boston Center
06:32PM 42.3572 -74.2214 81° East 265 305 7,700 -900 Descending Boston Center
06:33PM 42.3625 -74.1486 84° East 269 310 7,000 -887 Descending Boston Center
06:34PM 42.3725 -74.0364 83° East 254 292 6,000 -950 Descending Boston Center
06:35PM 42.3800 -73.9550 83° East 259 298 5,100 -1,075 Descending Boston Center
06:35PM 42.3781 -73.9242 95° East 257 296 4,800 -700 Descending Boston Center
06:36PM 42.3850 -73.8708 80° East 254 292 4,400 -636 Descending Boston Center
06:36PM 42.3878 -73.8231 85° East 255 293 4,100 -300 Descending Boston Center
06:37PM 42.3925 -73.7697 83° East 254 292 4,100 -98 Level Boston Center
06:37PM 42.3950 -73.7333 85° East 242 278 4,000 -100 Descending Boston Center
06:38PM 42.3997 -73.6911 81° East 249 287 4,000  Level Boston Center
06:38PM 42.4025 -73.6322 86° East 232 267 4,000  Level Boston Center
06:39PM 42.4050 -73.5958 85° East 236 272 4,000  Level Boston Center
06:39PM 42.4097 -73.5422 83° East 226 260 4,000  Level Boston Center
06:40PM 42.4097 -73.5200 90° East 226 260 4,000  Level Boston Center
06:42PM 42.4151 -73.3276 79° East  Level FlightAware Approximate
06:49PM 42.4167 -73.2833 90° East  Level FlightAware Approximate
06:50PM 42.4268 -73.2929 90° East  Level Estimated
06:51PM 42.4268 -73.2929 90° East  Level Estimated
06:52PM 42.4268 -73.2929 90° East  Level Estimated
06:53PM 42.4268 -73.2929 90° East  Level Estimated
06:54PM 42.4268 -73.2929 90° East  Level Estimated
06:55PM 42.4268 -73.2929 90° East  Level Estimated
06:56PM 42.4268 -73.2929 90° East  Level Estimated
06:57PM 42.4268 -73.2929 90° East  Level Estimated
06:58PM 42.4268 -73.2929 90° East  Level Estimated

Login

Don't have an account? Register now (free) for customized features, flight alerts, and more!